Jackpot

Texas Poker Multi Jackpot System

Kini Telah hadir Jackpot SUPER ROYAL FLUSH

Kini Telah hadir Jackpot 2000 (khusus table VIP keatas).

Ikutilah global jackpot yang tersedia di system kami, dengan system jackpot terbaru dan pertama di indonesia, anda dapat membeli jackpot dengan harga 100 rupiah saja dan menangkan hadiahnya hingga puluhan juta rupiah.

Jackpot bukanlah suatu keharusan untuk dibeli, namun kami memberikan suatu fitur tambahan untuk member tercinta dari www.uanglancar.com.

Terdapat tiga pilihan harga jackpot yang bisa anda beli yaitu :100,500,1000 dan 2000(khusus table VIP Keatas) rupiah.

Hadiah dari Multi jackpot system www.uanglancar.com

  1. full house x 10 harga jackpot yang anda beli.
      (contoh:anda membeli 1000 maka:1000 X10 = 10.000)
  2. four of kind x 250 harga jackpot yang anda beli
      (contoh:anda membeli 1000 maka:1000 X250 = 250.000)
  3. Straight flush x 1200
      (contoh:anda membeli 1000 maka:1000 X1200 = 1.200.000)
  4. Royal flush x 10000 harga jackpot yang anda beli
      (contoh:anda membeli 1000 maka:1000 X10000 = 10.000.000)
  5. SUPER ROYAL FLUSH x 30000 harga jackpot yang anda beli
      (contoh:anda membeli 1000 maka:1000 X30000 = 30.000.000)

Kondisi kartu

  1. full house adalah kondisi kartu dimana kartu anda dan kartu tengah dengan total 7 kartu bisa mendapatkan nilai 5 kartu dengan kombinasi 1 tris(three of kind) dan 1 pair, contoh 3 kartu 10 dan 2 kartu 5
  2. Four of kind adalah kondisi kartu dimana kartu anda dan kartu tengah dengan total 7 kartu bisa mendapatkan nilai 5 kartu dengan kombinasi 4 kartu yang sama jumlah dan 1 kartu apapun juga contoh anda mendapatkan 4 buah kartu angka 3 dan 1 kartu apapun.
  3. Staright flush adalah kondisi kartu dimana kartu anda dan kartu tengah dengan total 7 kartu bisa mendapatkan nilai 5 kartu dengan kombinasi seri / staright dengan kembang yang sama contoh : urutan kartu dari angka 5, 6, 7, 8 , 9 10 dengan kembang yg sama misalnya as hati
  4. Royal flush adalah kondisi kartu dimana kartu anda dan kartu tengah dengan total 7 kartu bisa mendapatkan nilai 5 kartu dengan kombinasi seri / staright dengan kembang yang sama tetapi kartu tersebut haruslah dimulai dari 10. contoh 10, Queen, Jack, King dan aces dengan kembang yang sama
  5. Super Royal flush adalah kondisi kartu dimana Kedua kartu anda digabung dengan 3 kartu pertama meja haruslah royal flush. contoh kartu anda 10,Queen kembang sama dan 3 kartu pertama meja adalah Jack, King dan aces dengan kembang yang sama

Demikian adalah penjelasan dari Multi Jackpot www.uanglancar.com terima kasih dan selamat bermain salam hoki dari kami

Texas Poker Jackpot Winner

TOP SUPER ROYAL FLUSH
No.TanggalNamaPriceWin
121/11 23:49UDAKARTUSuper Royal flush6,000,000
221/11 18:47SYIFA59Super Royal flush3,000,000
321/11 18:36FISH8888888Super Royal flush15,000,000
421/11 15:28HGUKAM33AYSuper Royal flush30,000,000
521/11 10:49RAHMATWJ12Super Royal flush6,000,000
TOP ROYAL FLUSH
No.TanggalNamaPriceWin
122/11 03:35U7UX0310Royal flush10,000,000
222/11 03:24PIPER88Royal flush2,000,000
322/11 03:08SASKIA123Royal flush1,000,000
422/11 03:04HANNY88Royal flush1,000,000
522/11 02:59PAKBUSRoyal flush10,000,000
TOP STRAIGHT FLUSH
No.TanggalNamaPriceWin
122/11 03:53IZZAL007Straight Flush120,000
222/11 03:52UH07C075KVStraight Flush240,000
322/11 03:50NTIDWIRATAStraight Flush120,000
422/11 03:49HICKOK19Straight Flush600,000
522/11 03:48MFTNSTStraight Flush2,400,000
LATEST JACKPOT
No.TanggalNamaPriceWin
122/11 03:54ALIG1234Full House2,000
222/11 03:54JAMBU00Full House1,000
322/11 03:54KALONG8000Full House2,000
422/11 03:54PLUS770Full House5,000
522/11 03:54F3C19D8BFull House5,000
622/11 03:54DIANAMYFull House10,000
722/11 03:54BOCIA3033Full House10,000
822/11 03:54B1GN4G4Full House5,000
922/11 03:54STEFFANI99Full House10,000
1022/11 03:54LUNARIA00Full House5,000
1122/11 03:54D0DC14F1Four Of A Kind125,000
1222/11 03:54DERMAWAN18Full House1,000
1322/11 03:54PO88DEWAFull House10,000
1422/11 03:54DEWALOH12Full House5,000
1522/11 03:54PAKET890Full House5,000
1622/11 03:54CAE8AEE3V7Full House5,000
1722/11 03:54DHDHD242Full House1,000
1822/11 03:54HPV1S10NFull House5,000
1922/11 03:54ALDI87Full House20,000
2022/11 03:54D34D6348Full House1,000
2122/11 03:54STEMPELFull House20,000
2222/11 03:54KS1898Four Of A Kind500,000
2322/11 03:54UTHA13Full House1,000
2422/11 03:53CIRCUZER85Full House10,000
2522/11 03:53QUANKENFull House10,000
2622/11 03:53OPPOF5PLISFull House5,000
2722/11 03:53CESYAFull House2,000
2822/11 03:53IZZAL007Straight Flush120,000
2922/11 03:53BUDAY77Full House5,000
3022/11 03:53RZ1IDCD5RQFour Of A Kind125,000
3122/11 03:53CAMPIOENFull House1,000
3222/11 03:53SASEG1222Full House1,000
3322/11 03:53UHIBUKYFull House20,000
3422/11 03:53WESTLIFE34Full House1,000
3522/11 03:53D9PB19VD9ZFour Of A Kind50,000
3622/11 03:53MONONGCODFull House500
3722/11 03:53MUTEER229Full House1,000
3822/11 03:53STEFADIFull House5,000
3922/11 03:53JOB_111Full House5,000
4022/11 03:53BRHA23Full House2,000
4122/11 03:53MATHEUS01Full House2,000
4222/11 03:53YULFIAH110Full House2,000
4322/11 03:53KITENOFour Of A Kind125,000
4422/11 03:53BUDIEDWANFull House2,000
4522/11 03:53POL3X12Four Of A Kind25,000
4622/11 03:53AJAG2200Full House2,000
4722/11 03:53SMLEKOTFull House5,000
4822/11 03:53ATMAMEK123Full House2,000
4922/11 03:53SEMPAXSFour Of A Kind125,000
5022/11 03:53FLKR56DRG7Full House10,000

Domino Multi Jackpot System

Ikutilah global jackpot yang tersedia di system kami, dengan system jackpot terbaru dan pertama di indonesia, anda dapat membeli jackpot dengan harga 100 rupiah saja dan menangkan hadiahnya hingga puluhan juta rupiah.

Jackpot bukanlah suatu keharusan untuk dibeli, namun kami memberikan suatu fitur tambahan untuk member tercinta dari www.uanglancar.com.

Terdapat tiga pilihan harga jackpot yang bisa anda beli yaitu :100,500 dan 1000 rupiah.

Hadiah dari Multi jackpot system www.uanglancar.com

  1. Murni Kecil x 50 harga jackpot yang anda beli.
      (contoh:anda membeli 1000 maka:1000 X 50 = 50.000)
  2. Murni Besar x 50 harga jackpot yang anda beli
      (contoh:anda membeli 1000 maka:1000 X 50 = 50.000)
  3. BALAK x 100 harga jackpot yang anda beli
      (contoh:anda membeli 1000 maka:1000 X 100 = 100.000)
  4. ENAM DEWA x 6666 harga jackpot yang anda beli
      (contoh:anda membeli 1000 maka:1000 X 6666 = 6.666.000)

Demikian adalah penjelasan dari Multi Jackpot www.uanglancar.com terima kasih dan selamat bermain salam hoki dari kami

Domino Jackpot Winner

TOP ENAM DEWA
No.TanggalNamaPriceWin
122/11 02:13M_PI3murni enam666,600
222/11 01:34QQINDAHQmurni enam6,666,000
322/11 01:08OKILAmurni enam6,666,000
421/11 23:07DIM91murni enam6,666,000
521/11 22:46SAMPATI12murni enam666,600
TOP BALAK
No.TanggalNamaPriceWin
122/11 03:53YAHUTSSSbalak100,000
222/11 03:47R1NO09balak50,000
322/11 03:43JUKERMAN12balak50,000
422/11 03:37MWMW14balak100,000
522/11 03:25ANAM66ANAMbalak10,000
LATEST JACKPOT
No.TanggalNamaPriceWin
122/11 03:54PLERITAMmurni besar50,000
222/11 03:53DONTU99murni kecil50,000
322/11 03:53YAHUTSSSbalak100,000
422/11 03:53Q5H6DFGL69murni besar50,000
522/11 03:53MAKANLGmurni kecil50,000
622/11 03:51EBODCOBEDmurni besar50,000
722/11 03:51CEMOKBEJOmurni kecil50,000
822/11 03:51PIST0N09murni besar25,000
922/11 03:50SULTANRAFImurni besar5,000
1022/11 03:49SUGEST04murni kecil25,000
1122/11 03:49DEWIRISmurni kecil25,000
1222/11 03:49FABREGAS21murni besar50,000
1322/11 03:48HOLIMANIAmurni besar50,000
1422/11 03:48LOCOPUTAR7murni kecil5,000
1522/11 03:47R1NO09balak50,000
1622/11 03:47DEWWA17murni kecil50,000
1722/11 03:45MSGUENmurni besar50,000
1822/11 03:44TOBAKUSmurni besar5,000
1922/11 03:44AAYESHAmurni kecil50,000
2022/11 03:43JUKERMAN12balak50,000
2122/11 03:43DAGOLLmurni kecil25,000
2222/11 03:43MASDCmurni kecil50,000
2322/11 03:42WDDDDDDDWWlucky9910,000
2422/11 03:41EMPI44murni kecil25,000
2522/11 03:40COMAHlucky9910,000
2622/11 03:39AA14D6C7murni besar5,000
2722/11 03:38ETJDAYmurni besar50,000
2822/11 03:37MWMW14balak100,000
2922/11 03:37CIAK855murni kecil25,000
3022/11 03:37J1CLCGC73Ymurni besar5,000
3122/11 03:37MAWANG17murni kecil5,000
3222/11 03:36RAFLI18murni besar5,000
3322/11 03:36LUSJPBOSmurni kecil50,000
3422/11 03:36BONAYOELmurni kecil50,000
3522/11 03:34JIRIN152murni kecil25,000
3622/11 03:33BEXS27murni besar50,000
3722/11 03:32T4_R1murni kecil50,000
3822/11 03:32ANAM66ANAMmurni besar25,000
3922/11 03:31CHIPAYUmurni besar50,000
4022/11 03:31PAUL7Cmurni besar50,000
4122/11 03:30EMONOSmurni kecil50,000
4222/11 03:30KOND0M378murni besar50,000
4322/11 03:29ZAA99murni kecil50,000
4422/11 03:29REYDO66murni kecil50,000
4522/11 03:28ROYALFLVSHmurni besar50,000
4622/11 03:28BUUX99murni kecil25,000
4722/11 03:27EMONOSmurni besar50,000
4822/11 03:27BEBEK51lucky992,500
4922/11 03:25ALEX8881murni besar50,000
5022/11 03:25KOWWDOKmurni kecil50,000

Ceme Multi Jackpot System

Jackpot dilihat dari gabungan kartu pemain dengan kartu bandar. Bandar harus membeli jackpot sebanyak jumlah player yang sedang duduk. Sebagai contoh bila terdapat 3 pemain duduk bermain, dan bandar memutuskan untuk membeli jackpot Rp 1.000, maka pada periode tersebut bandar akan membeli jackpot sebanyak 3xRp1.000 = Rp3.000.

Jackpot bukanlah suatu keharusan untuk dibeli, namun kami memberikan suatu fitur tambahan untuk member tercinta dari www.uanglancar.com.

Terdapat tiga pilihan harga jackpot yang bisa anda beli yaitu :100,500 dan 1000 rupiah.

Hadiah dari Multi jackpot system www.uanglancar.com

  1. Murni Kecil x 50 harga jackpot yang anda beli.
      (contoh:anda membeli 1000 maka:1000 X 50 = 50.000)
  2. Murni Besar x 50 harga jackpot yang anda beli
      (contoh:anda membeli 1000 maka:1000 X 50 = 50.000)
  3. BALAK x 200 harga jackpot yang anda beli
      (contoh:anda membeli 1000 maka:1000 X 200 = 200.000)
  4. ENAM DEWA x 6666 harga jackpot yang anda beli
      (contoh:anda membeli 1000 maka:1000 X 6666 = 6.666.000)

Demikian adalah penjelasan dari Multi Jackpot www.uanglancar.com terima kasih dan selamat bermain salam hoki dari kami

Ceme Jackpot Winner

TOP ENAM DEWA
No.TanggalNamaPriceWin
122/11 03:53DEXDAFFA0murni enam6,666,000
222/11 03:53OP27MOTORmurni enam666,600
322/11 02:33MINT33murni enam666,600
422/11 02:20LEXRINSmurni enam3,333,000
522/11 02:20CINCO123murni enam666,600
TOP BALAK
No.TanggalNamaPriceWin
122/11 03:54HUSEIN45balak200,000
222/11 03:54DEXDAFFA0balak200,000
322/11 03:54ADUNG331balak200,000
422/11 03:54DEXDAFFA0balak200,000
522/11 03:54DWBT99927balak100,000
LATEST JACKPOT
No.TanggalNamaPriceWin
122/11 03:54GYIL8N7PSmurni kecil50,000
222/11 03:54FIYU260711murni kecil5,000
322/11 03:54SENDYAGUNGmurni besar5,000
422/11 03:54DPR333murni kecil5,000
522/11 03:54BIOHAZARDmurni besar50,000
622/11 03:54BP881852murni besar50,000
722/11 03:54DEDIH12murni besar5,000
822/11 03:54FABIAN94murni besar5,000
922/11 03:54JUADAHmurni besar25,000
1022/11 03:54HUSEIN45balak200,000
1122/11 03:54DEXDAFFA0balak200,000
1222/11 03:54ADUNG331balak200,000
1322/11 03:54DEXDAFFA0balak200,000
1422/11 03:54DWBT99927balak100,000
1522/11 03:54BISING_95murni besar50,000
1622/11 03:54AMG11111murni besar5,000
1722/11 03:54RASENDR1YAmurni besar50,000
1822/11 03:54JENDRA68balak200,000
1922/11 03:53RENDYDY11murni kecil25,000
2022/11 03:53RBTBGTmurni kecil5,000
2122/11 03:53EZAR212murni kecil25,000
2222/11 03:53DEXDAFFA0murni enam6,666,000
2322/11 03:53OP27MOTORmurni enam666,600
2422/11 03:53SENDYAGUNGbalak20,000
2522/11 03:53BIRIWbalak100,000
2622/11 03:52N3N3Smurni kecil50,000
2722/11 03:52SUGANSUGANmurni kecil25,000
2822/11 03:52ADHIET03murni kecil5,000
2922/11 03:51S1NGO_77murni kecil50,000
3022/11 03:51AVANZA_007murni kecil5,000
3122/11 03:51DEXDAFFA0murni kecil50,000
3222/11 03:51R3Z496murni kecil5,000
3322/11 03:51D3HVARD6JVmurni besar25,000
3422/11 03:51UBAS85balak20,000
3522/11 03:51EMPHU84balak200,000
3622/11 03:50INYOK57murni kecil50,000
3722/11 03:50MAHMAT11murni kecil5,000
3822/11 03:50WBP_112murni kecil50,000
3922/11 03:50SOONGOOOmurni besar50,000
4022/11 03:50SHEIMANS0Rmurni besar50,000
4122/11 03:50JUADAHmurni kecil25,000
4222/11 03:50DESSAAbalak200,000
4322/11 03:49YUDII01murni kecil50,000
4422/11 03:49CHIMOMO19murni besar50,000
4522/11 03:49ELLPASOmurni besar25,000
4622/11 03:49HUSNI_36murni besar50,000
4722/11 03:49KODIR63murni kecil25,000
4822/11 03:49JEFVICA99balak20,000
4922/11 03:49SUMI50murni besar25,000
5022/11 03:49JUADAHmurni kecil25,000